TimeMST,TemperatureF,Dew PointF,Humidity,Sea Level PressureIn,VisibilityMPH,Wind Direction,Wind SpeedMPH,Gust SpeedMPH,PrecipitationIn,Events,Conditions,WindDirDegrees,DateUTC
12:53 AM,34.0,19.9,56,29.91,10.0,West,18.4,-,N/A,,Overcast,280,2013-02-26 07:53:00
1:53 AM,33.1,19.9,59,29.92,10.0,West,15.0,-,N/A,,Mostly Cloudy,280,2013-02-26 08:53:00
2:53 AM,33.1,18.0,54,29.93,10.0,WNW,16.1,-,N/A,,Mostly Cloudy,290,2013-02-26 09:53:00
3:53 AM,32.0,15.1,50,29.94,10.0,WNW,18.4,-,N/A,,Mostly Cloudy,300,2013-02-26 10:53:00
4:53 AM,32.0,15.1,50,29.96,10.0,WNW,16.1,-,N/A,,Scattered Clouds,300,2013-02-26 11:53:00
5:53 AM,32.0,15.1,50,30.01,10.0,WNW,13.8,-,N/A,,Scattered Clouds,300,2013-02-26 12:53:00
6:53 AM,30.9,14.0,50,30.03,10.0,NW,16.1,-,N/A,,Mostly Cloudy,310,2013-02-26 13:53:00
7:53 AM,30.9,14.0,50,30.06,10.0,WNW,11.5,-,N/A,,Scattered Clouds,290,2013-02-26 14:53:00
8:53 AM,34.0,14.0,44,30.08,10.0,WNW,16.1,-,N/A,,Partly Cloudy,300,2013-02-26 15:53:00
9:53 AM,37.0,14.0,39,30.09,10.0,WNW,17.3,-,N/A,,Partly Cloudy,300,2013-02-26 16:53:00
10:53 AM,41.0,12.9,32,30.08,10.0,NNW,18.4,26.5,N/A,,Partly Cloudy,330,2013-02-26 17:53:00
11:53 AM,43.0,12.9,30,30.07,10.0,NW,15.0,27.6,N/A,,Scattered Clouds,310,2013-02-26 18:53:00
12:53 PM,43.0,12.9,30,30.07,10.0,NNW,19.6,26.5,N/A,,Scattered Clouds,340,2013-02-26 19:53:00
1:53 PM,42.1,12.0,29,30.08,10.0,NW,17.3,23.0,N/A,,Mostly Cloudy,320,2013-02-26 20:53:00
2:53 PM,41.0,15.1,35,30.10,10.0,NNW,16.1,24.2,N/A,,Mostly Cloudy,340,2013-02-26 21:53:00
3:53 PM,39.9,17.1,40,30.14,10.0,NNW,19.6,28.8,N/A,,Mostly Cloudy,340,2013-02-26 22:53:00
4:53 PM,39.0,18.0,43,30.16,10.0,NNW,19.6,-,N/A,,Scattered Clouds,340,2013-02-26 23:53:00
5:53 PM,36.0,16.0,44,30.19,10.0,NNW,13.8,-,N/A,,Scattered Clouds,340,2013-02-27 00:53:00
6:53 PM,30.9,17.1,57,30.23,10.0,NW,9.2,-,N/A,,Partly Cloudy,320,2013-02-27 01:53:00
7:53 PM,28.9,18.0,64,30.25,10.0,NW,11.5,-,N/A,,Scattered Clouds,310,2013-02-27 02:53:00
8:53 PM,30.0,19.0,64,30.26,10.0,NW,9.2,-,N/A,,Mostly Cloudy,320,2013-02-27 03:53:00
9:53 PM,28.0,18.0,66,30.26,10.0,WNW,9.2,-,N/A,,Mostly Cloudy,300,2013-02-27 04:53:00
10:53 PM,30.0,19.0,64,30.26,10.0,SSW,5.8,-,N/A,,Mostly Cloudy,200,2013-02-27 05:53:00
11:53 PM,28.9,19.0,67,30.27,10.0,WSW,6.9,-,N/A,,Mostly Cloudy,250,2013-02-27 06:53:00